Regional Weather Roundup
Issued by NWS Little Rock, AR

Home | Current Version | Previous Version | Graphics & Text | Print | Product List | Glossary On
Versions: 1 2 3 4 5 6 7 8 9 10 11 12 13 14 15 16 17 18 19 20 21 22 23 24 25 26 27 28 29 30 31 32 33 34 35 36 37 38 39 40 41 42 43 44 45 46 47 48 49 50
000
ASUS44 KLZK 210905
RWRLZK

WEATHER ROUNDUP FOR ARKANSAS
NATIONAL WEATHER SERVICE LITTLE ROCK AR
400 AM CDT TUE APR 21 2015

NOTE: "FAIR" INDICATES FEW OR NO CLOUDS BELOW 12,000 FEET WITH NO
SIGNIFICANT WEATHER AND/OR OBSTRUCTIONS TO VISIBILITY.

ARZ001-003-010-029-211000-
NORTHWEST ARKANSAS

CITY           SKY/WX    TMP DP  RH WIND       PRES   REMARKS
FAYETTEVILLE   MOCLDY    42  38  85 S8        29.97S
FORT SMITH     PTCLDY    45  41  86 E5        29.98S
HARRISON       PTCLDY    46  33  60 CALM      29.95S
BENTONVILLE    PTCLDY    45  34  65 SW3       29.95F
ROGERS         PTCLDY    44  35  70 SW8       29.95F
SILOAM SPGS    PTCLDY    45  32  61 S3        29.97S
HIGHFILL       PTCLDY    44  34  67 SW7       29.95S
$$

ARZ004-005-016-211000-
NORTH CENTRAL ARKANSAS

CITY           SKY/WX    TMP DP  RH WIND       PRES   REMARKS
BATESVILLE     CLEAR     45  37  76 CALM      29.97S
FLIPPIN        PTCLDY    45 N/A N/A SW3       29.93S
MTN HOME       PTCLDY    42  34  73 S3        29.94S
$$

ARZ040-041-211000-
WEST CENTRAL ARKANSAS

CITY           SKY/WX    TMP DP  RH WIND       PRES   REMARKS
MENA           CLEAR     41  37  87 CALM      30.02S
MOUNT IDA      CLEAR     40  37  89 CALM      29.99S
$$

ARZ009-017-025-026-028-211000-
NORTHEAST ARKANSAS

CITY           SKY/WX    TMP DP  RH WIND       PRES   REMARKS
CORNING          N/A     46  39  76 SW9       29.95R
JONESBORO      CLEAR     44  38  79 W5        29.97R
NEWPORT        CLEAR     46  41  83 S6        29.98S
WALNUT RIDGE   CLEAR     46  34  61 SW8       29.95S
BLYTHEVILLE    CLEAR     49  39  68 SW5       29.96R
$$

ARZ022-023-033-042-044-211000-
CENTRAL ARKANSAS

CITY           SKY/WX    TMP DP  RH WIND       PRES   REMARKS
LITTLE ROCK    CLEAR     48  41  76 W8        30.01R
N LITTLE ROCK    N/A     49  38  66 SW3       30.01R
JACKSONVILLE   CLEAR     42  40  93 CALM      29.99S
SEARCY         CLEAR     42  39  89 CALM      30.00S
HOT SPRINGS    CLEAR     43  40  89 CALM      30.01S
RUSSELLVILLE   CLEAR     42  40  92 CALM      29.99S
CLINTON        FAIR      37  37 100 CALM      30.01S
$$

ARZ036-211000-
EAST ARKANSAS

CITY           SKY/WX    TMP DP  RH WIND       PRES   REMARKS
WEST MEMPHIS   CLEAR     49  41  74 CALM      29.98R
$$

ARZ050-053-066-070-073-211000-
SOUTHWEST ARKANSAS

CITY           SKY/WX    TMP DP  RH WIND       PRES   REMARKS
ARKADELPHIA    FAIR      47  46  96 CALM      30.02S
CAMDEN         CLEAR     43  41  93 CALM      30.03S
TEXARKANA      CLEAR     48  43  82 CALM      30.02F
EL DORADO      CLEAR     45  42  89 CALM      30.03S
DE QUEEN       CLEAR     42  41  96 CALM      30.00F
$$

ARZ056-057-069-211000-
SOUTHEAST ARKANSAS

CITY           SKY/WX    TMP DP  RH WIND       PRES   REMARKS
PINE BLUFF     CLEAR     50  40  68 CALM      30.01S
STUTTGART      CLEAR     48  43  81 SW5       30.00S
MONTICELLO     CLEAR     46  42  86 CALM      30.02R

$$




USA.gov is the U.S. government's official web portal to all federal, state and local government web resources and services.